TimeCST,TemperatureF,Dew PointF,Humidity,Sea Level PressureIn,VisibilityMPH,Wind Direction,Wind SpeedMPH,Gust SpeedMPH,PrecipitationIn,Events,Conditions,WindDirDegrees,DateUTC
12:15 AM,15.8,9.5,76,30.41,10.0,WNW,6.9,-,N/A,,Overcast,290,2013-01-21 06:15:00
12:35 AM,15.8,9.9,77,30.41,10.0,WNW,6.9,-,N/A,,Overcast,300,2013-01-21 06:35:00
12:55 AM,16.2,10.0,77,30.41,10.0,NW,5.8,-,N/A,Snow,Light Snow,310,2013-01-21 06:55:00
1:15 AM,16.3,9.0,73,30.41,10.0,NW,9.2,-,N/A,,Overcast,320,2013-01-21 07:15:00
1:35 AM,16.3,6.8,66,30.41,10.0,NW,11.5,19.6,N/A,,Overcast,310,2013-01-21 07:35:00
1:55 AM,15.8,6.6,67,30.40,10.0,NW,11.5,-,N/A,,Overcast,310,2013-01-21 07:55:00
2:15 AM,15.6,7.0,69,30.41,10.0,NW,10.4,17.3,N/A,,Overcast,320,2013-01-21 08:15:00
2:35 AM,14.9,6.6,70,30.41,10.0,NNW,10.4,17.3,N/A,,Overcast,330,2013-01-21 08:35:00
2:55 AM,14.9,6.1,68,30.41,10.0,NNW,8.1,17.3,N/A,,Overcast,330,2013-01-21 08:55:00
3:15 AM,14.4,3.7,63,30.42,10.0,NNW,9.2,-,N/A,,Overcast,340,2013-01-21 09:15:00
3:35 AM,13.1,2.1,62,30.41,10.0,NNW,12.7,20.7,N/A,,Overcast,330,2013-01-21 09:35:00
3:55 AM,12.7,1.4,61,30.41,10.0,NW,9.2,17.3,N/A,,Overcast,320,2013-01-21 09:55:00
4:15 AM,12.9,1.4,60,30.41,10.0,NW,12.7,16.1,N/A,,Overcast,320,2013-01-21 10:15:00
4:55 AM,12.6,-2.7,51,30.41,10.0,NW,11.5,15.0,N/A,,Overcast,320,2013-01-21 10:55:00
5:15 AM,10.8,-5.4,48,30.41,10.0,NW,13.8,19.6,N/A,,Overcast,320,2013-01-21 11:15:00
5:35 AM,9.9,-6.9,47,30.42,10.0,NNW,11.5,19.6,N/A,,Overcast,330,2013-01-21 11:35:00
5:55 AM,9.5,-4.9,52,30.42,10.0,NNW,8.1,18.4,N/A,,Overcast,340,2013-01-21 11:55:00
6:15 AM,9.3,-4.2,54,30.42,10.0,NNW,5.8,16.1,N/A,,Overcast,340,2013-01-21 12:15:00
6:35 AM,8.6,-4.5,55,30.43,10.0,NNW,8.1,-,N/A,,Overcast,340,2013-01-21 12:35:00
6:55 AM,7.9,-5.3,55,30.44,10.0,North,8.1,17.3,N/A,,Overcast,350,2013-01-21 12:55:00
7:15 AM,7.2,-4.7,58,30.44,10.0,North,10.4,-,N/A,,Overcast,350,2013-01-21 13:15:00
7:35 AM,6.1,-5.1,60,30.44,10.0,NNW,8.1,-,N/A,,Overcast,330,2013-01-21 13:35:00
7:55 AM,5.9,-5.3,60,30.44,10.0,NNW,8.1,16.1,N/A,,Overcast,340,2013-01-21 13:55:00
8:15 AM,6.3,-4.9,60,30.44,10.0,North,5.8,-,N/A,,Overcast,350,2013-01-21 14:15:00
8:35 AM,5.9,-4.9,61,30.45,10.0,NNW,4.6,-,N/A,,Overcast,340,2013-01-21 14:35:00
8:55 AM,6.1,-4.4,62,30.45,10.0,NNW,9.2,-,N/A,,Overcast,330,2013-01-21 14:55:00
9:15 AM,6.4,-4.5,61,30.45,10.0,North,9.2,-,N/A,,Overcast,350,2013-01-21 15:15:00
9:35 AM,7.0,-4.2,60,30.45,10.0,NNW,9.2,-,N/A,,Mostly Cloudy,330,2013-01-21 15:35:00
9:55 AM,7.2,-5.1,57,30.46,10.0,NNW,5.8,-,N/A,,Mostly Cloudy,330,2013-01-21 15:55:00
10:15 AM,7.0,-6.3,55,30.47,10.0,NW,4.6,-,N/A,,Overcast,320,2013-01-21 16:15:00
10:35 AM,7.3,-6.7,53,30.46,10.0,NW,9.2,-,N/A,,Overcast,320,2013-01-21 16:35:00
10:55 AM,7.7,-6.5,52,30.46,10.0,NNW,6.9,-,N/A,,Overcast,330,2013-01-21 16:55:00
11:15 AM,7.7,-6.3,53,30.46,10.0,NW,8.1,-,N/A,,Overcast,320,2013-01-21 17:15:00
11:35 AM,8.2,-6.3,52,30.46,10.0,WNW,9.2,-,N/A,,Overcast,300,2013-01-21 17:35:00
11:55 AM,8.4,-6.0,52,30.45,10.0,NW,6.9,-,N/A,,Overcast,310,2013-01-21 17:55:00
12:15 PM,8.4,-7.1,49,30.44,10.0,NW,10.4,-,N/A,,Overcast,320,2013-01-21 18:15:00
12:35 PM,9.1,-7.4,47,30.43,10.0,WNW,9.2,-,N/A,,Overcast,300,2013-01-21 18:35:00
12:55 PM,9.5,-7.8,46,30.42,10.0,NW,9.2,-,N/A,,Overcast,310,2013-01-21 18:55:00
1:15 PM,10.2,-6.7,47,30.42,10.0,WNW,9.2,-,N/A,,Overcast,290,2013-01-21 19:15:00
1:35 PM,10.2,-6.2,48,30.40,10.0,WNW,6.9,-,N/A,,Overcast,300,2013-01-21 19:35:00
1:55 PM,11.1,-5.6,47,30.41,10.0,NW,8.1,-,N/A,,Scattered Clouds,310,2013-01-21 19:55:00
2:15 PM,11.5,-6.0,46,30.39,10.0,WNW,11.5,-,N/A,,Clear,300,2013-01-21 20:15:00
2:35 PM,11.7,-6.2,45,30.39,10.0,NW,4.6,-,N/A,,Clear,310,2013-01-21 20:35:00
2:55 PM,12.2,-6.0,44,30.39,10.0,NW,5.8,-,N/A,,Clear,310,2013-01-21 20:55:00
3:15 PM,11.7,-5.8,46,30.39,10.0,WNW,8.1,-,N/A,,Clear,300,2013-01-21 21:15:00
3:35 PM,12.4,-5.8,44,30.38,10.0,NW,8.1,-,N/A,,Scattered Clouds,310,2013-01-21 21:35:00
3:55 PM,13.1,-5.1,44,30.38,10.0,NW,9.2,-,N/A,,Scattered Clouds,310,2013-01-21 21:55:00
4:15 PM,13.1,-5.3,44,30.38,10.0,NW,6.9,-,N/A,,Scattered Clouds,320,2013-01-21 22:15:00
4:35 PM,13.1,-5.1,44,30.38,10.0,WNW,9.2,-,N/A,,Mostly Cloudy,300,2013-01-21 22:35:00
4:55 PM,13.1,-4.7,45,30.37,10.0,WNW,8.1,-,N/A,,Scattered Clouds,300,2013-01-21 22:55:00
5:15 PM,13.3,-4.0,46,30.37,10.0,NW,4.6,-,N/A,,Mostly Cloudy,320,2013-01-21 23:15:00
5:35 PM,13.3,-4.2,46,30.36,10.0,WNW,8.1,-,N/A,,Overcast,300,2013-01-21 23:35:00
5:55 PM,13.5,-4.0,46,30.36,10.0,WNW,8.1,-,N/A,,Mostly Cloudy,290,2013-01-21 23:55:00
6:15 PM,13.5,-3.8,46,30.36,10.0,WNW,4.6,-,N/A,,Scattered Clouds,300,2013-01-22 00:15:00
6:35 PM,13.5,-3.5,47,30.36,10.0,NNW,4.6,-,N/A,,Scattered Clouds,330,2013-01-22 00:35:00
6:55 PM,13.1,-3.5,48,30.37,10.0,North,3.5,-,N/A,,Scattered Clouds,350,2013-01-22 00:55:00
7:15 PM,13.1,-2.9,49,30.37,10.0,Calm,Calm,-,N/A,,Mostly Cloudy,0,2013-01-22 01:15:00
7:35 PM,13.1,-2.4,50,30.37,10.0,North,3.5,-,N/A,,Overcast,360,2013-01-22 01:35:00
7:55 PM,13.1,-3.1,49,30.37,10.0,Calm,Calm,-,N/A,,Overcast,0,2013-01-22 01:55:00
8:15 PM,13.1,-2.9,49,30.37,10.0,Calm,Calm,-,N/A,,Overcast,0,2013-01-22 02:15:00
8:35 PM,13.1,-2.9,49,30.37,10.0,Calm,Calm,-,N/A,,Overcast,0,2013-01-22 02:35:00
8:55 PM,13.1,-2.2,51,30.37,10.0,Calm,Calm,-,N/A,,Overcast,0,2013-01-22 02:55:00
9:15 PM,13.1,-1.7,52,30.36,10.0,Calm,Calm,-,N/A,,Overcast,0,2013-01-22 03:15:00
9:35 PM,12.4,-0.9,55,30.37,10.0,Calm,Calm,-,N/A,,Overcast,0,2013-01-22 03:35:00
9:55 PM,12.2,-1.1,55,30.37,10.0,NE,3.5,-,N/A,,Mostly Cloudy,40,2013-01-22 03:55:00
10:15 PM,12.2,-0.8,56,30.36,10.0,Calm,Calm,-,N/A,,Scattered Clouds,0,2013-01-22 04:15:00
10:35 PM,12.0,-0.4,58,30.36,10.0,Calm,Calm,-,N/A,,Clear,0,2013-01-22 04:35:00
10:55 PM,12.0,-0.8,57,30.36,10.0,Calm,Calm,-,N/A,,Scattered Clouds,0,2013-01-22 04:55:00
11:15 PM,11.8,-0.6,58,30.36,10.0,Calm,Calm,-,N/A,,Scattered Clouds,0,2013-01-22 05:15:00
11:35 PM,12.0,-1.1,56,30.36,10.0,Calm,Calm,-,N/A,,Clear,0,2013-01-22 05:35:00
11:55 PM,12.2,-0.8,56,30.36,10.0,Calm,Calm,-,N/A,,Clear,0,2013-01-22 05:55:00